KE0RUZ Weather Reports


Display with metric or nautical units.
time (UTC)temp
F
wind
direction
speed
MPH
gust
MPH
rain 1hr
in
rain 24hr
in
rain mn
in
humidity
%
barometer
mb
20260510093050 58 0 0.0 0.0 0.00 0.01 0.00 85 1016.0
20260510091544 58 0 0.0 0.0 0.00 0.01 0.00 85 1015.5
20260510090045 58 0 0.0 0.0 0.00 0.01 0.00 85 1015.4
20260510084539 59 0 0.0 0.0 0.00 0.01 0.00 86 1015.0
20260510083054 59 0 0.0 0.0 0.00 0.01 0.00 85 1014.9
20260510081548 59 0 0.0 0.0 0.00 0.01 0.00 84 1015.0
20260510080259 60 0 0.0 0.0 0.00 0.01 0.00 83 1015.0
20260510074549 60 0 0.0 0.0 0.00 0.01 0.00 82 1015.0
20260510073045 61 0 0.0 0.0 0.00 0.01 0.00 83 1015.0
20260510071554 61 0 0.0 1.0 0.00 0.01 0.00 83 1015.1
20260510070049 61 0 0.0 0.0 0.00 0.01 0.00 83 1014.9
20260510064544 62 0 0.0 0.0 0.00 0.01 0.00 82 1014.8
20260510063046 62 0 0.0 0.0 0.00 0.01 0.00 80 1014.7
20260510061548 62 142 0.0 3.0 0.00 0.01 0.00 80 1014.6
20260510060041 61 28 1.0 3.0 0.00 0.01 0.00 84 1014.6
20260510054550 61 0 0.0 1.0 0.00 0.01 0.00 84 1014.4
20260510053047 61 0 0.0 0.0 0.00 0.01 0.00 85 1014.6
20260510051550 61 0 0.0 0.0 0.00 0.01 0.00 85 1014.7
20260510050047 60 0 0.0 0.0 0.00 0.01 0.00 85 1014.7
20260510044551 60 0 0.0 0.0 0.00 0.01 0.01 85 1014.6
20260510043040 59 0 0.0 0.0 0.00 0.01 0.01 85 1014.5
20260510041547 59 0 0.0 0.0 0.00 0.01 0.01 85 1014.4
20260510040049 58 0 0.0 0.0 0.00 0.01 0.01 85 1014.3
20260510034550 58 0 0.0 0.0 0.00 0.01 0.01 85 1014.2
20260510033102 58 0 0.0 0.0 0.00 0.01 0.01 83 1013.9
20260510031548 59 0 0.0 0.0 0.00 0.01 0.01 83 1013.6
20260510030050 60 0 0.0 0.0 0.00 0.01 0.01 81 1013.6
20260510024545 61 0 0.0 0.0 0.00 0.01 0.01 79 1013.4
20260510023045 62 0 0.0 0.0 0.00 0.01 0.01 77 1013.0
20260510021540 63 0 0.0 0.0 0.00 0.01 0.01 74 1012.9
20260510020047 64 0 0.0 0.0 0.00 0.01 0.01 73 1012.4
20260510014546 66 0 0.0 0.0 0.00 0.01 0.01 70 1012.0
20260510013044 68 0 0.0 0.0 0.00 0.01 0.01 66 1011.7
20260510011552 72 0 0.0 0.0 0.00 0.01 0.01 57 1011.4
20260510010043 75 0 0.0 1.0 0.00 0.01 0.01 54 1011.4
20260510004545 79 0 0.0 1.0 0.00 0.01 0.01 46 1011.3
20260510003103 80 0 0.0 1.0 0.00 0.01 0.01 44 1011.2
20260510001546 81 139 0.0 2.0 0.00 0.01 0.01 44 1011.1
20260510000047 81 232 1.0 3.0 0.00 0.01 0.01 44 1011.1
20260509234559 82 253 1.0 4.0 0.00 0.01 0.01 40 1011.1
20260509233043 83 248 0.0 3.0 0.00 0.01 0.01 39 1011.2
20260509231552 83 252 1.0 4.0 0.00 0.01 0.01 35 1011.2
20260509230055 85 0 0.0 4.0 0.00 0.01 0.01 35 1011.1
20260509224546 83 0 0.0 1.0 0.00 0.01 0.01 34 1011.1
20260509223045 82 238 1.0 5.0 0.00 0.01 0.01 38 1011.2
20260509221541 81 303 4.0 7.0 0.00 0.01 0.01 40 1011.2
20260509220038 83 304 1.0 4.0 0.00 0.01 0.01 37 1011.3
20260509214551 82 244 3.0 7.0 0.00 0.01 0.01 39 1011.2
20260509213052 82 324 1.0 4.0 0.00 0.01 0.01 39 1011.3
20260509211547 82 299 3.0 7.0 0.00 0.01 0.01 39 1011.5
20260509210048 81 321 2.0 7.0 0.00 0.01 0.01 42 1011.6
20260509204549 82 305 2.0 6.0 0.00 0.01 0.01 40 1011.8
20260509203049 82 330 3.0 8.0 0.00 0.01 0.01 42 1011.8
20260509201547 81 268 2.0 6.0 0.00 0.01 0.01 43 1011.9
20260509200054 81 345 3.0 10.0 0.00 0.01 0.01 42 1012.2
20260509194543 81 339 2.0 7.0 0.00 0.01 0.01 43 1012.2
20260509193043 81 272 4.0 7.0 0.00 0.01 0.01 42 1012.3
20260509191540 81 243 2.0 5.0 0.00 0.01 0.01 39 1012.5
20260509190045 81 333 5.0 9.0 0.00 0.01 0.01 42 1012.5
20260509184552 81 34 1.0 5.0 0.00 0.01 0.01 44 1012.4
20260509183118 80 333 2.0 7.0 0.00 0.01 0.01 46 1012.5
20260509181606 80 232 2.0 7.0 0.00 0.01 0.01 53 1012.8
20260509180049 80 332 3.0 8.0 0.00 0.01 0.01 41 1012.9
20260509174545 79 304 4.0 7.0 0.00 0.01 0.01 46 1012.9
20260509173046 79 313 1.0 5.0 0.00 0.01 0.01 47 1013.0
20260509171544 78 288 3.0 6.0 0.00 0.01 0.01 50 1013.0
20260509170043 78 300 2.0 8.0 0.00 0.01 0.01 52 1013.0
20260509164543 77 320 1.0 4.0 0.00 0.01 0.01 53 1013.1
20260509163053 76 323 3.0 5.0 0.00 0.01 0.01 52 1013.0
20260509161538 75 214 1.0 5.0 0.00 0.01 0.01 59 1013.0
20260509160047 74 240 2.0 6.0 0.00 0.01 0.01 61 1013.0
20260509154551 73 238 3.0 4.0 0.00 0.01 0.01 63 1013.0
20260509153046 72 18 1.0 8.0 0.00 0.01 0.01 69 1013.0
20260509151545 71 352 4.0 9.0 0.00 0.01 0.01 71 1013.0
20260509150049 70 235 2.0 6.0 0.00 0.01 0.01 78 1013.1
20260509144553 68 0 1.0 5.0 0.00 0.01 0.01 81 1013.0
20260509143043 66 310 2.0 6.0 0.00 0.01 0.01 85 1013.0
20260509141543 64 338 1.0 3.0 0.00 0.01 0.01 90 1013.0
20260509140055 63 307 1.0 5.0 0.00 0.01 0.01 94 1012.8
20260509134546 62 238 1.0 3.0 0.00 0.01 0.01 97 1012.6
20260509133046 61 0 0.0 2.0 0.00 0.01 0.01 97 1012.8
20260509131547 59 225 1.0 4.0 0.00 0.01 0.01 98 1012.6
20260509130053 58 239 1.0 2.0 0.00 0.01 0.01 98 1012.7
20260509124543 56 0 0.0 2.0 0.00 0.01 0.01 98 1012.5
20260509123043 55 0 0.0 2.0 0.00 0.01 0.01 98 1012.4
20260509121545 53 0 0.0 0.0 0.00 0.01 0.01 97 1012.2
20260509120052 52 0 0.0 0.0 0.00 0.01 0.01 97 1012.1
20260509114550 51 0 0.0 0.0 0.00 0.01 0.01 97 1012.0
20260509113052 53 0 0.0 1.0 0.00 0.01 0.01 97 1011.9
20260509111552 53 0 0.0 1.0 0.00 0.01 0.01 97 1011.9
20260509110045 53 0 0.0 2.0 0.00 0.01 0.01 98 1011.8
20260509104546 52 252 0.0 1.0 0.00 0.01 0.01 97 1011.9
20260509103047 53 0 0.0 1.0 0.01 0.01 0.01 97 1011.8
20260509101552 54 0 0.0 1.0 0.01 0.01 0.01 97 1011.9
20260509100043 53 242 0.0 2.0 0.01 0.01 0.01 98 1011.8
20260509094545 53 255 1.0 1.0 0.01 0.01 0.01 98 1011.9